Weather in Kazachka

Russia / Saratov Oblast     51°28′03″N   43°55′54″E
В апреле 2022 года жителям России запретили посещать сайт meteo.paraplan.net по решению Генеральной прокуратуры. Аудитория сайта уменьшилась в 10 раз. Владельцы сайта не видят смысла в поддержке погодного сервера в таких условиях. Сайт будет закрыт в октябре.
temp.,
°C
wind,
m/s
gust,
m/s
humid.,
%
clouds,
%
prec.,
mm/h
press.,
hPa
HPBL,
m
3 october, mon
mon301:00+18sse81862100 0.1 1006619
04:00+17se91856100 0.1 1005677
07:00+16se112051100 0.0 1004825
10:00+17sse111856100 0.0 10051261
13:00+14sse101784100 2.3 1007960
16:00+16ssw5864100 4.8 10101193
19:00+12wsw367493 0.0 1013132
22:00+11s227526 0.0 101521
4 october, tue
tue401:00+10sse337876 0.0 101641
04:00+10se4780100 0.0 1016116
07:00+10sse41086100 0.0 1017199
10:00+13sse5869100 0.0 1018359
13:00+17s6850100 0.0 10181432
16:00+17sse7862100 0.1 10181206
19:00+12sse71384100 0.5 1019467
22:00+11sse6127796 0.6 1020478
5 october, wed
wed501:00+10sse5118698 0.0 1020390
04:00+10sse4988100 0.0 1020318
07:00+9sse489148 0.0 1020194
10:00+13ssw587714 0.0 1020430
13:00+17sw6861100 0.0 10191314
16:00+16sw5851100 0.1 10191294
19:00+13sw36544 0.0 1020114
22:00+10sw35676 0.0 102078
6 october, thu
thu601:00+11sw3766100 0.0 1020227
04:00+10w487710 0.0 1020598
07:00+7wsw36905 0.0 1021160
10:00+10wnw58685 0.0 1021714
13:00+12wnw685698 0.1 10201549
16:00+12wnw696338 0.4 10201174
19:00+10w5981100 0.2 1022683
22:00+11wsw5108050 0.3 1021589
7 october, fri
fri701:00+10wsw51383100 0.0 1021458
04:00+10wsw6138581 0.0 1020373
07:00+11wsw61380100 0.0 1020464
10:00+13w610730 0.0 1020563
13:00+16w686356 0.0 10201023
16:00+15wnw6867100 0.0 10201164
19:00+12nw48780 0.0 1022193
22:00+10w39780 0.0 1023185